This demonstration page uses our WeatherBlox Daily Observations layout. Learn more.

Left ArrowRight Arrow

Hourly Observations for June 27, 2022

Temp ( °F °C ) Dew Point ( °F °C ) Humidity (%) Winds ( mph kmh ) Pressure ( in mb ) Visibility ( mi km ) Precip ( " mm )
12:59 am 00:59 Mostly Clear 75 23.9 74 23.3 96 96 SSW 12 19 30.10 1019 10 16 0.00 0.00
1:59 am 01:59 Mostly Clear 75 23.9 74 23.3 96 96 SSW 9 15 30.09 1019 10 16 0.00 0.00
2:59 am 02:59 Mostly Clear 74 23.3 73 22.8 97 97 SSW 9 15 30.09 1019 10 16 0.00 0.00
3:59 am 03:59 Clear 74 23.3 70 21.1 88 88 S 12 19 30.06 1018 10 16 0.00 0.00
4:59 am 04:59 Partly Cloudy 73 22.8 68 20 84 84 SSW 12 19 30.06 1018 10 16 0.00 0.00
5:59 am 05:59 Partly Cloudy 73 22.8 68 20 84 84 SSW 10 17 30.06 1018 10 16 0.00 0.00
6:59 am 06:59 Mostly Cloudy 73 22.8 66 18.9 79 79 SSW 10 17 30.06 1018 10 16 0.00 0.00
7:59 am 07:59 Mostly Cloudy 76 24.4 66 18.9 72 72 SSW 10 17 30.06 1018 10 16 0.00 0.00
8:59 am 08:59 Mostly Cloudy 79 26.1 67 19.4 67 67 SSW 9 15 30.05 1018 10 16 0.00 0.00
9:59 am 09:59 Mostly Cloudy 82 27.8 68 20 63 63 SSW 14 22 30.05 1018 10 16 0.00 0.00
10:59 am 10:59 Mostly Cloudy 85 29.4 68 20 57 57 SSW 12 19 30.04 1017 10 16 0.00 0.00
11:59 am 11:59 Mostly Cloudy 85 29.4 68 20 57 57 SW 9 15 30.04 1017 10 16 0.00 0.00
12:59 pm 12:59 Mostly Cloudy 88 31.1 68 20 52 52 SW 10 17 30.02 1017 10 16 0.00 0.00
1:59 pm 13:59 Mostly Cloudy 89 31.7 68 20 50 50 SSW 13 20 30.00 1016 10 16 0.00 0.00
2:59 pm 14:59 Mostly Sunny 89 31.7 68 20 50 50 SW 13 20 29.96 1015 10 16 0.00 0.00
3:59 pm 15:59 Mostly Cloudy 88 31.1 69 20.6 54 54 SSW 12 19 29.95 1014 10 16 0.00 0.00
4:59 pm 16:59 Cloudy 88 31.1 69 20.6 54 54 SW 14 22 29.96 1015 10 16 0.00 0.00
5:59 pm 17:59 Cloudy with Light Rain 88 31.1 71 21.7 57 57 WNW 21 33 30.01 1016 6 10 0.00 0.00
6:09 pm 18:09 Cloudy with Thunderstorms 88 31.1 71 21.7 57 57 NW 16 26 30.01 1016 6 10 0.00 0.00
6:59 pm 18:59 Cloudy with Thunderstorms 79 26.1 74 23.3 85 85 NW 12 19 30.03 1017 6 10 0.13 3.30
7:21 pm 19:21 Cloudy with Light Rain 79 26.1 74 23.3 85 85 WNW 12 19 30.04 1017 3 5 0.10 2.54
7:59 pm 19:59 Cloudy with Light Rain 75 23.9 74 23.3 96 96 W 6 9 30.02 1017 3 5 0.27 6.86
8:59 pm 20:59 Mostly Cloudy 73 22.8 72 22.2 96 96 Calm 30.02 1017 7 11 0.04 1.02
9:59 pm 21:59 Cloudy 73 22.8 72 22.2 96 96 Calm 30.05 1018 7 11 0.00 0.00
10:35 pm 22:35 Mostly Cloudy 73 22.8 72 22.2 96 96 SW 3 6 30.06 1018 7 11 0.00 0.00
10:59 pm 22:59 Mostly Cloudy 73 22.8 72 22.2 96 96 Calm 30.05 1018 7 11 0.00 0.00
11:59 pm 23:59 Cloudy with Light Rain 73 22.8 72 22.2 96 96 W 6 9 30.05 1018 6 10 0.00 0.00

Powered by AerisWeather